Regional Weather Roundup
Issued by NWS

Home | Current Version | Previous Version | Graphics & Text | Print | Product List | Glossary On
Versions: 1 2 3 4 5 6 7 8 9 10 11 12 13 14 15 16 17 18 19 20 21 22 23 24 25 26 27 28 29 30 31 32 33 34 35 36 37 38 39 40 41 42 43 44 45 46 47 48 49 50
000
ASUS45 KBOU 050507
RWRCO

WEATHER ROUNDUP FOR COLORADO
NATIONAL WEATHER SERVICE DENVER/BOULDER CO
1100 PM MDT MON MAY 04 2015

NOTE: "FAIR" INDICATES FEW OR NO CLOUDS BELOW 12000 FEET WITH NO
SIGNIFICANT WEATHER AND/OR OBSTRUCTIONS TO VISIBILITY.

COZ001>005-013-030-031-050600-
...NORTHWEST COLORADO...

CITY           SKY/WX    TMP DP  RH WIND       PRES   REMARKS
CRAIG          PTCLDY    49  39  68 E10       30.01S
HAYDEN         NOT AVBL
MEEKER         PTCLDY    50  39  66 E6        30.00S
MOUNT WERNER   NOT AVBL
STEAMBOAT SPGS PTCLDY    45  38  76 NW5       30.04F
WALDEN         MOCLDY    39  34  81 CALM      30.10F
$$

COZ006>008-011-050600-
...WEST CENTRAL VALLEYS...

CITY           SKY/WX    TMP DP  RH WIND       PRES   REMARKS
GRAND JUNCTION CLOUDY    57  45  64 E8        29.92R
MONTROSE       CLOUDY    49  45  86 SE8       29.99F
EAGLE          PTCLDY    46  41  81 SE3       30.07S
RIFLE          MOCLDY    53  41  63 SE3       29.96S
DELTA          CLOUDY    58  44  60 SE3       29.96S
NUCLA          CLOUDY    48  41  76 E5        30.03S
$$

COZ017>023-064>068-050600-
...SOUTHWEST COLORADO...

CITY           SKY/WX    TMP DP  RH WIND       PRES   REMARKS
DURANGO        CLOUDY    48  44  86 CALM      30.03S
CORTEZ         CLOUDY    51  46  83 CALM      29.99S
PAGOSA SPRINGS CLOUDY    44  42  93 NW5       30.08F
TELLURIDE      CLOUDY    42  39  88 CALM      30.12S
WOLF CREEK PAS NOT AVBL
$$

COZ009-010-012-014-032>034-037-058>063-050600-
...CENTRAL COLORADO...

CITY           SKY/WX    TMP DP  RH WIND       PRES   REMARKS
ASPEN          MOCLDY    42  36  79 S5        30.06F
BUENA VISTA    NOT AVBL
COPPER MTN     CLOUDY    36  32  87 SE5       30.26F
BERTHOUD PASS  SNOW      28  21  74 E15G23    30.30F VSB<1/4 WCI  17
COTTONWOOD PAS LGT RAIN  39  36  87 SW3       30.19F
GUNNISON       CLOUDY    45  36  70 N5        30.10F
KREMMLING      MOCLDY    41  37  87 CALM      30.11F
LEADVILLE      LGT RAIN  36  36 100 S6        30.17F FOG
MONARCH PASS   SNOW      32  32 100 MISG      30.34F VSB<1/4
SALIDA         CLOUDY    46  44  90 CALM      30.19S
SUNLIGHT       MOCLDY    36  34  93 NE5       30.21F
WILKERSON PASS SNOW      32  32 100 E3        30.28S VSB<1/4
$$

COZ069>075-050600-
...SAN LUIS VALLEY/SANGRE DE CRISTO MOUNTAINS...

CITY           SKY/WX    TMP DP  RH WIND       PRES   REMARKS
ALAMOSA        CLOUDY    48  38  68 S8        30.05F
LA VETA PASS   CLOUDY    36  36 100 MISG      30.18F FOG
SAGUACHE       DRIZZLE   45  43  93 NE6       30.09F
$$

COZ035-036-038>040-050600-
...NORTHERN COLORADO FRONT RANGE...

CITY           SKY/WX    TMP DP  RH WIND       PRES   REMARKS
DENVER INTL AP CLOUDY    50  47  89 E10       30.08F FOG
DMNS CITY PARK   N/A     51  51  97 E2        30.08S
AURORA         CLOUDY    50  50 100 E2        30.09F
FRONT RANGE AP NOT AVBL
ERIE MUNI ARPT LGT RAIN  51  50  95 E10       30.08F
BOULDER MUN AP CLOUDY    52  50  93 NE3       30.08S
CENTENNIAL     CLOUDY    50  46  86 S7        30.09F
BROOMFIELD     NOT AVBL
FORT COLLINS   MOCLDY    48  45  87 E8        30.11S
LONGMONT       CLOUDY    53  50  90 E7        30.11S
$$

COZ041-046-047-076>085-087-088-050600-
...PIKES PEAK/PALMER DIVIDE AND SOUTHERN FOOTHILLS...

CITY           SKY/WX    TMP DP  RH WIND       PRES   REMARKS
COLO. SPRINGS  RAIN      47  45  93 N10       30.11F FOG
A. F. ACADEMY  CLOUDY    47  43  87 N5        30.12F
ELLICOTT       CLOUDY     1   1 100 E12       30.10S WCI -16
FALCON         LGT RAIN  45  44  97 N7        30.14F
FORT CARSON    CLOUDY    48  48  99 N15       30.08F
LIMON          LGT RAIN  48  47  96 E8        30.09F
MONUMENT HILL  RAIN      43  43 100 SE5       30.13S
TRINIDAD       CLOUDY    50  48  93 S3        30.06R
$$

COZ042>045-048>051-090-091-050600-
...NORTHEAST COLORADO...

CITY           SKY/WX    TMP DP  RH WIND       PRES   REMARKS
GREELEY ARPT   CLOUDY    50  43  76 SE14      30.11S
AKRON          FOG       45  45 100 E13       30.10F VSB 3/4
BURLINGTON     CLOUDY    50  46  86 NE13      30.07F
WRAY           CLOUDY    49  47  93 E6        30.11F
STERLING       CLOUDY    46  45  93 E7        30.11R
HOLYOKE        NOT AVBL
FORT MORGAN    CLOUDY    47  44  89 E12       30.11F
$$

COZ086-089-092>099-050600-
...SOUTHEAST COLORADO...

CITY           SKY/WX    TMP DP  RH WIND       PRES   REMARKS
PUEBLO         CLOUDY    55  46  71 NE13      30.04S
LA JUNTA       CLOUDY    55  53  93 E10       30.05R
LAMAR          CLOUDY    55  54  96 E8        30.01F
SPRINGFIELD      N/A     53  52  96 E9        30.04R
$$



USA.gov is the U.S. government's official web portal to all federal, state and local government web resources and services.